,��,��,��,�ð�,�Ǳ��µ� (��),�Ǳ��µ�_��Ȯ�� (��),�̽����µ� (��),�̽����µ�_��Ȯ�� (��),������ (%),������_��Ȯ�� (%),ǥ���� (hPa),ǥ����_��Ȯ�� (hPa),ǳ�� (m/s),ǳ��_��Ȯ�� (m/s),����� ���ϻ緮 (Wh/m��),����� ���ϻ緮_��Ȯ�� (Wh/m��)
0,2012,1,1,0,4.4,1.2,-2.3,0.8,63.0,5,1014.5,3.0,2.4,0.5,0.0,0.0
1,2012,1,1,1,3.2,1.2,-2.4,0.8,67.0,5,1015.1,3.0,1.9,0.5,0.0,0.0
2,2012,1,1,2,2.3,1.2,-2.8,0.8,69.0,5,1016.0,3.0,2.1,0.5,0.0,0.0
3,2012,1,1,3,1.7,1.2,-3.1,0.8,70.0,5,1016.5,3.0,1.8,0.5,0.0,0.0
4,2012,1,1,4,1.1,1.2,-3.8,0.8,70.0,5,1017.5,3.0,1.2,0.5,0.0,0.0
5,2012,1,1,5,0.8,1.2,-3.9,0.8,70.0,5,1018.6,3.0,0.6,0.5,0.0,0.0
6,2012,1,1,6,0.1,1.2,-4.3,0.8,72.0,5,1019.9,3.0,0.9,0.5,0.0,0.0
7,2012,1,1,7,1.1,1.2,-3.9,0.8,69.0,5,1019.9,3.0,0.1,0.5,0.0,0.0
8,2012,1,1,8,2.1,1.2,-2.4,0.8,72.0,5,1020.2,3.0,1.0,0.5,154.0,19.0
9,2012,1,1,9,3.1,1.2,-1.6,0.8,71.0,5,1019.9,3.0,0.1,0.5,153.0,19.0
10,2012,1,1,10,4.9,1.2,-0.7,0.8,67.0,5,1020.1,3.0,0.0,0.5,230.0,29.0
11,2012,1,1,11,6.3,1.2,-2.0,0.8,55.0,5,1019.4,3.0,1.8,0.5,293.0,36.0
12,2012,1,1,12,5.9,1.2,-1.7,0.8,58.0,5,1018.3,3.0,2.4,0.5,398.0,49.0
13,2012,1,1,13,6.7,1.2,-1.2,0.8,57.0,5,1016.9,3.0,2.3,0.5,355.0,44.0
14,2012,1,1,14,6.4,1.2,-1.0,0.8,59.0,5,1016.3,3.0,3.4,0.5,228.0,28.0
15,2012,1,1,15,6.2,1.2,-0.5,0.8,62.0,5,1016.0,3.0,4.2,0.5,141.0,17.0
16,2012,1,1,16,5.9,1.2,0.0,0.8,66.0,5,1016.0,3.0,3.0,0.5,67.0,8.0
17,2012,1,1,17,4.6,1.2,-1.0,0.8,67.0,5,1015.8,3.0,4.8,0.5,18.0,2.0
18,2012,1,1,18,4.1,1.2,-2.5,0.8,62.0,5,1016.7,3.0,7.1,0.5,0.0,0.0
19,2012,1,1,19,3.2,1.2,-4.7,0.8,56.0,5,1017.5,3.0,4.2,0.5,0.0,0.0
20,2012,1,1,20,1.2,1.2,-10.0,0.8,43.0,5,1018.3,3.0,7.3,0.5,0.0,0.0
21,2012,1,1,21,0.4,1.2,-10.1,0.8,45.0,5,1018.6,3.0,5.6,0.5,0.0,0.0
22,2012,1,1,22,0.0,1.2,-9.7,0.8,48.0,5,1018.8,3.0,4.2,0.5,0.0,0.0
23,2012,1,1,23,-0.4,1.2,-10.0,0.8,48.0,5,1019.2,3.0,4.4,0.5,0.0,0.0
24,2012,1,2,0,-0.8,1.2,-10.2,0.8,49.0,5,1019.5,3.0,4.8,0.5,0.0,0.0
25,2012,1,2,1,-1.5,1.2,-10.0,0.8,52.0,5,1019.5,3.0,3.0,0.5,0.0,0.0
26,2012,1,2,2,-1.8,1.2,-10.6,0.8,51.0,5,1020.0,3.0,2.9,0.5,0.0,0.0
27,2012,1,2,3,-2.3,1.2,-10.8,0.8,52.0,5,1020.3,3.0,2.4,0.5,0.0,0.0
28,2012,1,2,4,-2.3,1.2,-11.0,0.8,51.0,5,1020.6,3.0,0.9,0.5,0.0,0.0
29,2012,1,2,5,-2.2,1.2,-11.5,0.8,49.0,5,1021.0,3.0,2.1,0.5,0.0,0.0
30,2012,1,2,6,-2.8,1.2,-11.0,0.8,53.0,5,1021.5,3.0,1.8,0.5,0.0,0.0
31,2012,1,2,7,-2.9,1.2,-10.4,0.8,56.0,5,1022.1,3.0,1.4,0.5,0.0,0.0
32,2012,1,2,8,-2.7,1.2,-10.5,0.8,55.0,5,1022.5,3.0,2.5,0.5,122.0,15.0
33,2012,1,2,9,-1.4,1.2,-10.5,0.8,50.0,5,1022.5,3.0,0.9,0.5,259.0,32.0
34,2012,1,2,10,1.0,1.2,-9.3,0.8,46.0,5,1022.0,3.0,3.2,0.5,410.0,51.0
35,2012,1,2,11,2.9,1.2,-9.0,0.8,41.0,5,1021.7,3.0,2.3,0.5,505.0,63.0
36,2012,1,2,12,4.0,1.2,-9.4,0.8,37.0,5,1020.6,3.0,2.2,0.5,533.0,66.0
37,2012,1,2,13,5.3,1.2,-8.5,0.8,36.0,5,1019.9,3.0,1.5,0.5,503.0,62.0
38,2012,1,2,14,5.8,1.2,-7.7,0.8,37.0,5,1018.6,3.0,1.9,0.5,400.0,50.0
39,2012,1,2,15,6.1,1.2,-12.5,0.8,25.0,5,1018.7,3.0,2.5,0.5,261.0,32.0
40,2012,1,2,16,4.5,1.2,-8.2,0.8,39.0,5,1019.4,3.0,2.0,0.5,85.0,11.0
41,2012,1,2,17,3.7,1.2,-8.0,0.8,42.0,5,1019.6,3.0,2.1,0.5,20.0,2.0
42,2012,1,2,18,3.0,1.2,-8.0,0.8,44.0,5,1019.8,3.0,1.3,0.5,0.0,0.0
43,2012,1,2,19,2.5,1.2,-6.8,0.8,50.0,5,1019.5,3.0,0.9,0.5,0.0,0.0
44,2012,1,2,20,2.0,1.2,-6.1,0.8,55.0,5,1019.0,3.0,1.1,0.5,0.0,0.0
45,2012,1,2,21,0.9,1.2,-5.3,0.8,63.0,5,1018.7,3.0,2.3,0.5,0.0,0.0
46,2012,1,2,22,0.6,1.2,-8.1,0.8,52.0,5,1018.6,3.0,2.3,0.5,0.0,0.0
47,2012,1,2,23,-0.5,1.2,-8.2,0.8,56.0,5,1018.2,3.0,1.6,0.5,0.0,0.0
48,2012,1,3,0,-0.4,1.2,-8.1,0.8,56.0,5,1018.4,3.0,1.8,0.5,0.0,0.0
49,2012,1,3,1,-0.3,1.2,-8.4,0.8,54.0,5,1018.0,3.0,0.4,0.5,0.0,0.0
50,2012,1,3,2,-0.7,1.2,-8.1,0.8,57.0,5,1018.2,3.0,1.2,0.5,0.0,0.0
51,2012,1,3,3,-0.8,1.2,-8.0,0.8,58.0,5,1017.9,3.0,1.9,0.5,0.0,0.0
52,2012,1,3,4,-1.6,1.2,-7.9,0.8,62.0,5,1018.0,3.0,1.6,0.5,0.0,0.0
53,2012,1,3,5,-1.6,1.2,-7.7,0.8,63.0,5,1018.1,3.0,1.6,0.5,0.0,0.0
54,2012,1,3,6,-0.8,1.2,-8.0,0.8,58.0,5,1017.7,3.0,4.0,0.5,0.0,0.0
55,2012,1,3,7,-1.8,1.2,-7.9,0.8,63.0,5,1018.1,3.0,0.5,0.5,0.0,0.0
56,2012,1,3,8,-1.6,1.2,-7.3,0.8,65.0,5,1018.7,3.0,1.2,0.5,97.0,12.0
57,2012,1,3,9,-0.1,1.2,-7.1,0.8,59.0,5,1019.2,3.0,1.7,0.5,224.0,28.0
58,2012,1,3,10,1.9,1.2,-7.1,0.8,51.0,5,1019.2,3.0,1.2,0.5,321.0,40.0
59,2012,1,3,11,3.3,1.2,-7.2,0.8,46.0,5,1018.4,3.0,0.9,0.5,220.0,27.0
60,2012,1,3,12,2.8,1.2,-6.6,0.8,50.0,5,1016.7,3.0,1.5,0.5,360.0,45.0
61,2012,1,3,13,3.9,1.2,-7.8,0.8,42.0,5,1015.6,3.0,2.1,0.5,392.0,49.0
62,2012,1,3,14,4.4,1.2,-6.8,0.8,44.0,5,1015.0,3.0,2.8,0.5,279.0,35.0
63,2012,1,3,15,4.0,1.2,-5.7,0.8,49.0,5,1014.7,3.0,2.4,0.5,214.0,27.0
64,2012,1,3,16,4.4,1.2,-4.3,0.8,53.0,5,1014.6,3.0,1.3,0.5,108.0,13.0
65,2012,1,3,17,3.9,1.2,-4.8,0.8,53.0,5,1014.3,3.0,1.1,0.5,20.0,2.0
66,2012,1,3,18,3.8,1.2,-3.0,0.8,61.0,5,1014.5,3.0,3.4,0.5,0.0,0.0
67,2012,1,3,19,3.2,1.2,-2.3,0.8,67.0,5,1014.5,3.0,3.1,0.5,0.0,0.0
68,2012,1,3,20,2.7,1.2,-3.0,0.8,66.0,5,1015.3,3.0,4.7,0.5,0.0,0.0
69,2012,1,3,21,2.0,1.2,-5.4,0.8,58.0,5,1015.4,3.0,4.0,0.5,0.0,0.0
70,2012,1,3,22,1.5,1.2,-6.8,0.8,54.0,5,1015.7,3.0,5.2,0.5,0.0,0.0
71,2012,1,3,23,0.8,1.2,-6.7,0.8,57.0,5,1015.8,3.0,3.2,0.5,0.0,0.0
72,2012,1,4,0,0.1,1.2,-6.9,0.8,59.0,5,1015.7,3.0,2.4,0.5,0.0,0.0
73,2012,1,4,1,-0.9,1.2,-6.8,0.8,64.0,5,1016.0,3.0,2.3,0.5,0.0,0.0
74,2012,1,4,2,-0.7,1.2,-7.3,0.8,61.0,5,1016.3,3.0,3.4,0.5,0.0,0.0
75,2012,1,4,3,-1.5,1.2,-7.4,0.8,64.0,5,1016.6,3.0,2.5,0.5,0.0,0.0
76,2012,1,4,4,-1.3,1.2,-7.2,0.8,64.0,5,1016.4,3.0,3.0,0.5,0.0,0.0
77,2012,1,4,5,-1.2,1.2,-8.2,0.8,59.0,5,1016.4,3.0,4.4,0.5,0.0,0.0
78,2012,1,4,6,-1.6,1.2,-7.9,0.8,62.0,5,1016.6,3.0,3.5,0.5,0.0,0.0
79,2012,1,4,7,-2.3,1.2,-7.9,0.8,65.0,5,1017.3,3.0,2.6,0.5,0.0,0.0
80,2012,1,4,8,-2.2,1.2,-7.5,0.8,67.0,5,1018.1,3.0,2.5,0.5,121.0,15.0
81,2012,1,4,9,-1.1,1.2,-9.4,0.8,53.0,5,1019.1,3.0,4.5,0.5,261.0,32.0
82,2012,1,4,10,0.0,1.2,-10.5,0.8,45.0,5,1019.9,3.0,4.0,0.5,413.0,51.0
83,2012,1,4,11,0.7,1.2,-11.7,0.8,39.0,5,1019.6,3.0,5.4,0.5,511.0,63.0
84,2012,1,4,12,1.8,1.2,-12.4,0.8,34.0,5,1018.9,3.0,4.2,0.5,540.0,67.0
85,2012,1,4,13,2.3,1.2,-13.5,0.8,30.0,5,1018.4,3.0,5.6,0.5,510.0,63.0
86,2012,1,4,14,2.2,1.2,-14.0,0.8,29.0,5,1017.7,3.0,7.6,0.5,408.0,51.0
87,2012,1,4,15,2.5,1.2,-13.7,0.8,29.0,5,1017.8,3.0,6.2,0.5,289.0,36.0
88,2012,1,4,16,2.3,1.2,-14.8,0.8,27.0,5,1018.5,3.0,5.5,0.5,118.0,15.0
89,2012,1,4,17,1.3,1.2,-14.8,0.8,29.0,5,1019.2,3.0,5.5,0.5,22.0,3.0
90,2012,1,4,18,0.6,1.2,-13.1,0.8,35.0,5,1019.8,3.0,5.2,0.5,0.0,0.0
91,2012,1,4,19,-0.2,1.2,-13.1,0.8,37.0,5,1020.8,3.0,4.5,0.5,0.0,0.0
92,2012,1,4,20,-0.7,1.2,-12.6,0.8,40.0,5,1021.3,3.0,4.2,0.5,0.0,0.0
93,2012,1,4,21,-1.3,1.2,-12.8,0.8,41.0,5,1021.8,3.0,3.2,0.5,0.0,0.0
94,2012,1,4,22,-2.0,1.2,-12.6,0.8,44.0,5,1022.2,3.0,2.6,0.5,0.0,0.0
95,2012,1,4,23,-2.8,1.2,-12.3,0.8,48.0,5,1022.2,3.0,1.1,0.5,0.0,0.0
96,2012,1,5,0,-3.3,1.2,-12.0,0.8,51.0,5,1022.0,3.0,2.3,0.5,0.0,0.0
97,2012,1,5,1,-2.5,1.2,-11.5,0.8,50.0,5,1022.5,3.0,3.7,0.5,0.0,0.0
98,2012,1,5,2,-3.1,1.2,-11.1,0.8,54.0,5,1023.1,3.0,2.9,0.5,0.0,0.0
99,2012,1,5,3,-3.0,1.2,-10.7,0.8,55.0,5,1023.1,3.0,3.4,0.5,0.0,0.0
100,2012,1,5,4,-3.7,1.2,-10.7,0.8,58.0,5,1023.2,3.0,1.5,0.5,0.0,0.0
101,2012,1,5,5,-3.5,1.2,-10.5,0.8,58.0,5,1023.2,3.0,0.2,0.5,0.0,0.0
102,2012,1,5,6,-3.8,1.2,-10.4,0.8,60.0,5,1023.6,3.0,0.0,0.5,0.0,0.0
103,2012,1,5,7,-3.8,1.2,-9.8,0.8,63.0,5,1023.7,3.0,3.3,0.5,0.0,0.0
104,2012,1,5,8,-3.2,1.2,-10.0,0.8,59.0,5,1024.2,3.0,1.7,0.5,125.0,16.0
105,2012,1,5,9,-1.5,1.2,-10.0,0.8,52.0,5,1024.8,3.0,2.3,0.5,265.0,33.0
106,2012,1,5,10,0.0,1.2,-10.2,0.8,46.0,5,1024.7,3.0,3.4,0.5,419.0,52.0
107,2012,1,5,11,1.6,1.2,-11.2,0.8,38.0,5,1024.5,3.0,3.9,0.5,517.0,64.0
108,2012,1,5,12,2.7,1.2,-11.6,0.8,34.0,5,1023.8,3.0,2.2,0.5,547.0,68.0
109,2012,1,5,13,2.6,1.2,-10.6,0.8,37.0,5,1022.7,3.0,2.4,0.5,516.0,64.0
110,2012,1,5,14,3.6,1.2,-9.4,0.8,38.0,5,1022.0,3.0,2.1,0.5,413.0,51.0
111,2012,1,5,15,4.7,1.2,-10.2,0.8,33.0,5,1021.7,3.0,1.3,0.5,293.0,36.0
112,2012,1,5,16,3.5,1.2,-10.2,0.8,36.0,5,1021.6,3.0,1.5,0.5,121.0,15.0
113,2012,1,5,17,2.8,1.2,-8.8,0.8,42.0,5,1021.7,3.0,1.2,0.5,22.0,3.0
114,2012,1,5,18,0.9,1.2,-8.8,0.8,48.0,5,1022.2,3.0,0.7,0.5,0.0,0.0
115,2012,1,5,19,0.9,1.2,-8.1,0.8,51.0,5,1022.5,3.0,0.0,0.5,0.0,0.0
116,2012,1,5,20,0.0,1.2,-7.2,0.8,58.0,5,1022.9,3.0,0.9,0.5,0.0,0.0
117,2012,1,5,21,-1.1,1.2,-8.1,0.8,59.0,5,1023.0,3.0,2.9,0.5,0.0,0.0
118,2012,1,5,22,-1.5,1.2,-8.0,0.8,61.0,5,1023.3,3.0,1.4,0.5,0.0,0.0
119,2012,1,5,23,-1.8,1.2,-7.9,0.8,63.0,5,1023.1,3.0,0.9,0.5,0.0,0.0
120,2012,1,6,0,-1.0,1.2,-9.6,0.8,52.0,5,1023.3,3.0,2.9,0.5,0.0,0.0
121,2012,1,6,1,-1.2,1.2,-10.0,0.8,51.0,5,1023.3,3.0,3.1,0.5,0.0,0.0
122,2012,1,6,2,-1.6,1.2,-9.9,0.8,53.0,5,1024.1,3.0,2.5,0.5,0.0,0.0
123,2012,1,6,3,-2.3,1.2,-10.3,0.8,54.0,5,1023.8,3.0,1.8,0.5,0.0,0.0
124,2012,1,6,4,-1.6,1.2,-12.5,0.8,43.0,5,1023.9,3.0,3.3,0.5,0.0,0.0
125,2012,1,6,5,-2.6,1.2,-12.1,0.8,48.0,5,1024.3,3.0,1.1,0.5,0.0,0.0
126,2012,1,6,6,-2.1,1.2,-11.9,0.8,47.0,5,1024.7,3.0,0.2,0.5,0.0,0.0
127,2012,1,6,7,-3.2,1.2,-10.7,0.8,56.0,5,1024.9,3.0,1.3,0.5,0.0,0.0
128,2012,1,6,8,-2.8,1.2,-10.6,0.8,55.0,5,1025.4,3.0,0.5,0.5,122.0,15.0
129,2012,1,6,9,-1.3,1.2,-9.9,0.8,52.0,5,1026.0,3.0,1.3,0.5,255.0,32.0
130,2012,1,6,10,2.3,1.2,-9.0,0.8,43.0,5,1026.4,3.0,1.0,0.5,407.0,50.0
131,2012,1,6,11,2.5,1.2,-8.8,0.8,43.0,5,1025.8,3.0,3.4,0.5,425.0,53.0
132,2012,1,6,12,3.4,1.2,-7.4,0.8,45.0,5,1025.0,3.0,2.7,0.5,508.0,63.0
133,2012,1,6,13,4.8,1.2,-7.0,0.8,42.0,5,1024.1,3.0,1.3,0.5,503.0,62.0
134,2012,1,6,14,4.3,1.2,-7.5,0.8,42.0,5,1023.7,3.0,3.9,0.5,405.0,50.0
135,2012,1,6,15,6.4,1.2,-6.9,0.8,38.0,5,1024.0,3.0,2.2,0.5,274.0,34.0
136,2012,1,6,16,5.0,1.2,-7.1,0.8,41.0,5,1024.2,3.0,1.7,0.5,120.0,15.0
137,2012,1,6,17,3.7,1.2,-7.1,0.8,45.0,5,1024.4,3.0,1.2,0.5,22.0,3.0
138,2012,1,6,18,2.6,1.2,-5.5,0.8,55.0,5,1025.2,3.0,0.8,0.5,0.0,0.0
139,2012,1,6,19,1.9,1.2,-5.0,0.8,60.0,5,1025.5,3.0,1.1,0.5,0.0,0.0
140,2012,1,6,20,1.3,1.2,-5.1,0.8,62.0,5,1026.0,3.0,0.4,0.5,0.0,0.0
141,2012,1,6,21,0.3,1.2,-4.9,0.8,68.0,5,1026.7,3.0,1.7,0.5,0.0,0.0
142,2012,1,6,22,-0.1,1.2,-5.3,0.8,68.0,5,1027.0,3.0,1.1,0.5,0.0,0.0
143,2012,1,6,23,-0.1,1.2,-4.7,0.8,71.0,5,1027.5,3.0,0.4,0.5,0.0,0.0
144,2012,1,7,0,0.0,1.2,-7.0,0.8,59.0,5,1027.6,3.0,1.1,0.5,0.0,0.0
145,2012,1,7,1,0.0,1.2,-6.8,0.8,60.0,5,1028.0,3.0,2.6,0.5,0.0,0.0
146,2012,1,7,2,-0.8,1.2,-7.6,0.8,60.0,5,1028.1,3.0,0.5,0.5,0.0,0.0
147,2012,1,7,3,-1.1,1.2,-7.6,0.8,61.0,5,1028.5,3.0,1.8,0.5,0.0,0.0
148,2012,1,7,4,-2.2,1.2,-7.5,0.8,67.0,5,1028.4,3.0,1.3,0.5,0.0,0.0
149,2012,1,7,5,-0.9,1.2,-8.5,0.8,56.0,5,1028.1,3.0,5.0,0.5,0.0,0.0
150,2012,1,7,6,-3.0,1.2,-7.7,0.8,70.0,5,1028.9,3.0,1.7,0.5,0.0,0.0
151,2012,1,7,7,-2.5,1.2,-8.1,0.8,65.0,5,1029.4,3.0,0.0,0.5,0.0,0.0
152,2012,1,7,8,-3.2,1.2,-8.4,0.8,67.0,5,1029.9,3.0,1.4,0.5,126.0,16.0
153,2012,1,7,9,-1.6,1.2,-8.8,0.8,58.0,5,1030.6,3.0,1.3,0.5,268.0,33.0
154,2012,1,7,10,1.3,1.2,-9.9,0.8,43.0,5,1030.9,3.0,2.4,0.5,423.0,52.0
155,2012,1,7,11,2.5,1.2,-9.7,0.8,40.0,5,1030.7,3.0,3.0,0.5,522.0,65.0
156,2012,1,7,12,3.8,1.2,-9.2,0.8,38.0,5,1029.9,3.0,2.9,0.5,553.0,69.0
157,2012,1,7,13,4.4,1.2,-8.3,0.8,39.0,5,1028.6,3.0,3.1,0.5,524.0,65.0
158,2012,1,7,14,5.1,1.2,-9.1,0.8,35.0,5,1028.1,3.0,2.3,0.5,421.0,52.0
159,2012,1,7,15,5.6,1.2,-11.5,0.8,28.0,5,1027.9,3.0,3.0,0.5,301.0,37.0
160,2012,1,7,16,5.6,1.2,-10.7,0.8,30.0,5,1027.9,3.0,2.0,0.5,126.0,16.0
161,2012,1,7,17,4.5,1.2,-10.8,0.8,32.0,5,1028.2,3.0,2.2,0.5,23.0,3.0
162,2012,1,7,18,2.7,1.2,-10.2,0.8,38.0,5,1028.5,3.0,1.5,0.5,0.0,0.0
163,2012,1,7,19,1.7,1.2,-8.7,0.8,46.0,5,1028.5,3.0,1.8,0.5,0.0,0.0
164,2012,1,7,20,1.6,1.2,-7.7,0.8,50.0,5,1029.1,3.0,0.3,0.5,0.0,0.0
165,2012,1,7,21,0.4,1.2,-6.6,0.8,59.0,5,1029.3,3.0,1.8,0.5,0.0,0.0
166,2012,1,7,22,0.1,1.2,-8.8,0.8,51.0,5,1029.4,3.0,1.7,0.5,0.0,0.0
167,2012,1,7,23,-0.4,1.2,-7.4,0.8,59.0,5,1028.6,3.0,1.8,0.5,0.0,0.0
168,2012,1,8,0,-0.7,1.2,-8.4,0.8,56.0,5,1028.1,3.0,1.8,0.5,0.0,0.0
169,2012,1,8,1,-0.9,1.2,-9.0,0.8,54.0,5,1027.8,3.0,1.9,0.5,0.0,0.0
170,2012,1,8,2,-0.9,1.2,-7.9,0.8,59.0,5,1027.7,3.0,1.6,0.5,0.0,0.0
171,2012,1,8,3,-1.3,1.2,-9.4,0.8,54.0,5,1027.5,3.0,2.7,0.5,0.0,0.0
172,2012,1,8,4,-1.4,1.2,-9.0,0.8,56.0,5,1027.6,3.0,1.2,0.5,0.0,0.0
173,2012,1,8,5,-1.4,1.2,-9.2,0.8,55.0,5,1027.4,3.0,1.7,0.5,0.0,0.0
174,2012,1,8,6,-1.5,1.2,-8.9,0.8,57.0,5,1027.2,3.0,1.2,0.5,0.0,0.0
175,2012,1,8,7,-1.6,1.2,-9.0,0.8,57.0,5,1027.5,3.0,1.5,0.5,17.0,2.0
176,2012,1,8,8,-1.5,1.2,-9.3,0.8,55.0,5,1027.8,3.0,2.1,0.5,128.0,16.0
177,2012,1,8,9,-0.3,1.2,-8.9,0.8,52.0,5,1028.1,3.0,2.0,0.5,262.0,32.0
178,2012,1,8,10,2.8,1.2,-8.2,0.8,44.0,5,1028.1,3.0,2.0,0.5,413.0,51.0
179,2012,1,8,11,4.8,1.2,-8.6,0.8,37.0,5,1027.1,3.0,1.6,0.5,511.0,63.0
180,2012,1,8,12,6.2,1.2,-10.5,0.8,29.0,5,1025.7,3.0,1.7,0.5,541.0,67.0
181,2012,1,8,13,6.8,1.2,-8.0,0.8,34.0,5,1024.5,3.0,2.2,0.5,513.0,64.0
182,2012,1,8,14,6.5,1.2,-8.2,0.8,34.0,5,1024.1,3.0,3.5,0.5,299.0,37.0
183,2012,1,8,15,6.7,1.2,-9.6,0.8,30.0,5,1023.3,3.0,1.5,0.5,208.0,26.0
184,2012,1,8,16,6.4,1.2,-9.9,0.8,30.0,5,1023.1,3.0,2.2,0.5,78.0,10.0
185,2012,1,8,17,5.8,1.2,-8.5,0.8,35.0,5,1023.6,3.0,1.2,0.5,17.0,2.0
186,2012,1,8,18,5.5,1.2,-9.5,0.8,33.0,5,1023.5,3.0,2.4,0.5,0.0,0.0
187,2012,1,8,19,5.6,1.2,-10.2,0.8,31.0,5,1023.8,3.0,1.7,0.5,0.0,0.0
188,2012,1,8,20,4.9,1.2,-10.0,0.8,33.0,5,1023.5,3.0,3.4,0.5,0.0,0.0
189,2012,1,8,21,4.8,1.2,-9.4,0.8,35.0,5,1023.5,3.0,2.6,0.5,0.0,0.0
190,2012,1,8,22,3.9,1.2,-10.5,0.8,34.0,5,1024.0,3.0,1.9,0.5,0.0,0.0
191,2012,1,8,23,3.3,1.2,-12.6,0.8,30.0,5,1024.2,3.0,3.5,0.5,0.0,0.0
192,2012,1,9,0,2.3,1.2,-12.3,0.8,33.0,5,1024.2,3.0,4.5,0.5,0.0,0.0
193,2012,1,9,1,1.8,1.2,-9.7,0.8,42.0,5,1024.4,3.0,4.3,0.5,0.0,0.0
194,2012,1,9,2,1.5,1.2,-8.8,0.8,46.0,5,1024.9,3.0,3.4,0.5,0.0,0.0
195,2012,1,9,3,1.2,1.2,-8.0,0.8,50.0,5,1024.8,3.0,3.8,0.5,0.0,0.0
196,2012,1,9,4,0.4,1.2,-7.8,0.8,54.0,5,1024.9,3.0,2.0,0.5,0.0,0.0
197,2012,1,9,5,0.8,1.2,-7.4,0.8,54.0,5,1024.8,3.0,4.1,0.5,0.0,0.0
198,2012,1,9,6,0.0,1.2,-7.2,0.8,58.0,5,1025.1,3.0,2.4,0.5,0.0,0.0
199,2012,1,9,7,0.2,1.2,-6.6,0.8,60.0,5,1025.1,3.0,3.7,0.5,0.0,0.0
200,2012,1,9,8,0.0,1.2,-6.6,0.8,61.0,5,1025.4,3.0,3.7,0.5,111.0,14.0
201,2012,1,9,9,1.0,1.2,-6.5,0.8,57.0,5,1026.0,3.0,3.3,0.5,255.0,32.0
202,2012,1,9,10,2.3,1.2,-6.5,0.8,52.0,5,1026.4,3.0,5.4,0.5,411.0,51.0
203,2012,1,9,11,3.6,1.2,-6.4,0.8,48.0,5,1026.2,3.0,5.2,0.5,508.0,63.0
204,2012,1,9,12,4.5,1.2,-6.7,0.8,44.0,5,1025.1,3.0,5.6,0.5,532.0,66.0
205,2012,1,9,13,5.5,1.2,-7.0,0.8,40.0,5,1024.4,3.0,5.2,0.5,508.0,63.0
206,2012,1,9,14,6.2,1.2,-7.0,0.8,38.0,5,1024.0,3.0,3.0,0.5,411.0,51.0
207,2012,1,9,15,5.9,1.2,-6.0,0.8,42.0,5,1023.8,3.0,2.3,0.5,294.0,36.0
208,2012,1,9,16,5.8,1.2,-6.7,0.8,40.0,5,1023.1,3.0,0.7,0.5,119.0,15.0
209,2012,1,9,17,5.4,1.2,-5.9,0.8,44.0,5,1023.4,3.0,1.5,0.5,21.0,3.0
210,2012,1,9,18,4.0,1.2,-4.4,0.8,54.0,5,1024.4,3.0,1.0,0.5,0.0,0.0
211,2012,1,9,19,3.1,1.2,-4.8,0.8,56.0,5,1024.4,3.0,0.0,0.5,0.0,0.0
212,2012,1,9,20,2.3,1.2,-4.0,0.8,63.0,5,1024.1,3.0,0.6,0.5,0.0,0.0
213,2012,1,9,21,1.1,1.2,-4.3,0.8,67.0,5,1023.8,3.0,1.8,0.5,0.0,0.0
214,2012,1,9,22,1.4,1.2,-3.6,0.8,69.0,5,1024.1,3.0,0.6,0.5,0.0,0.0
215,2012,1,9,23,1.2,1.2,-3.1,0.8,73.0,5,1023.6,3.0,0.5,0.5,0.0,0.0
216,2012,1,10,0,1.4,1.2,-3.8,0.8,68.0,5,1023.1,3.0,0.2,0.5,0.0,0.0
217,2012,1,10,1,0.5,1.2,-4.3,0.8,70.0,5,1023.0,3.0,0.5,0.5,0.0,0.0
218,2012,1,10,2,0.5,1.2,-4.5,0.8,69.0,5,1023.1,3.0,0.0,0.5,0.0,0.0
219,2012,1,10,3,-0.4,1.2,-4.1,0.8,76.0,5,1023.3,3.0,0.4,0.5,0.0,0.0
220,2012,1,10,4,-0.8,1.2,-4.6,0.8,75.0,5,1023.4,3.0,1.0,0.5,0.0,0.0
221,2012,1,10,5,-0.9,1.2,-4.7,0.8,75.0,5,1023.1,3.0,1.7,0.5,0.0,0.0
222,2012,1,10,6,-0.4,1.2,-4.6,0.8,73.0,5,1022.8,3.0,0.5,0.5,0.0,0.0
223,2012,1,10,7,-0.9,1.2,-4.6,0.8,76.0,5,1022.4,3.0,0.3,0.5,0.0,0.0
224,2012,1,10,8,-0.1,1.2,-4.7,0.8,71.0,5,1022.6,3.0,0.6,0.5,106.0,13.0
225,2012,1,10,9,0.3,1.2,-4.1,0.8,72.0,5,1022.9,3.0,1.0,0.5,255.0,32.0
226,2012,1,10,10,2.8,1.2,-3.9,0.8,61.0,5,1023.1,3.0,2.1,0.5,417.0,52.0
227,2012,1,10,11,3.9,1.2,-4.8,0.8,53.0,5,1023.0,3.0,2.5,0.5,448.0,56.0
228,2012,1,10,12,5.5,1.2,-5.5,0.8,45.0,5,1022.5,3.0,2.2,0.5,499.0,62.0
229,2012,1,10,13,5.9,1.2,-6.0,0.8,42.0,5,1021.4,3.0,3.4,0.5,454.0,56.0
230,2012,1,10,14,6.2,1.2,-5.4,0.8,43.0,5,1020.2,3.0,3.1,0.5,389.0,48.0
231,2012,1,10,15,5.7,1.2,-5.0,0.8,46.0,5,1019.9,3.0,3.3,0.5,301.0,37.0
232,2012,1,10,16,5.6,1.2,-4.5,0.8,48.0,5,1019.8,3.0,2.2,0.5,104.0,13.0
233,2012,1,10,17,5.1,1.2,-4.2,0.8,51.0,5,1019.7,3.0,1.7,0.5,0.0,0.0
234,2012,1,10,18,4.7,1.2,-3.8,0.8,54.0,5,1020.4,3.0,2.0,0.5,0.0,0.0
235,2012,1,10,19,3.9,1.2,-5.8,0.8,49.0,5,1020.8,3.0,2.6,0.5,0.0,0.0
236,2012,1,10,20,4.0,1.2,-9.4,0.8,37.0,5,1021.3,3.0,3.3,0.5,0.0,0.0
237,2012,1,10,21,3.4,1.2,-8.9,0.8,40.0,5,1021.4,3.0,3.7,0.5,0.0,0.0
238,2012,1,10,22,3.0,1.2,-8.6,0.8,42.0,5,1021.4,3.0,4.6,0.5,0.0,0.0
239,2012,1,10,23,2.6,1.2,-9.0,0.8,42.0,5,1022.0,3.0,3.1,0.5,0.0,0.0
240,2012,1,11,0,2.3,1.2,-9.0,0.8,43.0,5,1021.5,3.0,3.7,0.5,0.0,0.0
241,2012,1,11,1,2.4,1.2,-11.1,0.8,36.0,5,1021.9,3.0,5.2,0.5,0.0,0.0
242,2012,1,11,2,2.2,1.2,-12.0,0.8,34.0,5,1022.3,3.0,4.6,0.5,0.0,0.0
243,2012,1,11,3,2.0,1.2,-11.1,0.8,37.0,5,1022.3,3.0,4.7,0.5,0.0,0.0
244,2012,1,11,4,2.0,1.2,-9.0,0.8,44.0,5,1022.2,3.0,5.1,0.5,0.0,0.0
245,2012,1,11,5,2.0,1.2,-8.4,0.8,46.0,5,1022.4,3.0,7.0,0.5,0.0,0.0
246,2012,1,11,6,1.6,1.2,-8.2,0.8,48.0,5,1022.7,3.0,4.9,0.5,0.0,0.0
247,2012,1,11,7,1.1,1.2,-8.1,0.8,50.0,5,1023.0,3.0,3.9,0.5,0.0,0.0
248,2012,1,11,8,1.2,1.2,-8.3,0.8,49.0,5,1023.3,3.0,4.0,0.5,121.0,15.0
249,2012,1,11,9,1.8,1.2,-8.6,0.8,46.0,5,1023.9,3.0,5.0,0.5,268.0,33.0
250,2012,1,11,10,2.5,1.2,-9.7,0.8,40.0,5,1024.6,3.0,5.7,0.5,427.0,53.0
251,2012,1,11,11,3.2,1.2,-12.7,0.8,30.0,5,1024.3,3.0,5.8,0.5,529.0,66.0
252,2012,1,11,12,3.3,1.2,-13.5,0.8,28.0,5,1023.8,3.0,5.1,0.5,562.0,70.0
253,2012,1,11,13,4.1,1.2,-13.2,0.8,27.0,5,1022.7,3.0,4.3,0.5,535.0,66.0
254,2012,1,11,14,4.1,1.2,-14.7,0.8,24.0,5,1022.3,3.0,5.5,0.5,434.0,54.0
255,2012,1,11,15,4.2,1.2,-15.1,0.8,23.0,5,1022.5,3.0,5.5,0.5,314.0,39.0
256,2012,1,11,16,2.6,1.2,-12.8,0.8,31.0,5,1023.2,3.0,3.4,0.5,137.0,17.0
257,2012,1,11,17,1.6,1.2,-13.3,0.8,32.0,5,1024.1,3.0,2.9,0.5,26.0,3.0
258,2012,1,11,18,0.6,1.2,-15.0,0.8,30.0,5,1025.1,3.0,4.9,0.5,0.0,0.0
259,2012,1,11,19,-0.9,1.2,-15.5,0.8,32.0,5,1025.8,3.0,1.9,0.5,0.0,0.0
260,2012,1,11,20,-0.5,1.2,-15.5,0.8,31.0,5,1026.0,3.0,3.3,0.5,0.0,0.0
261,2012,1,11,21,-1.0,1.2,-16.0,0.8,31.0,5,1026.3,3.0,4.4,0.5,0.0,0.0
262,2012,1,11,22,-1.4,1.2,-16.3,0.8,31.0,5,1026.1,3.0,4.3,0.5,0.0,0.0
263,2012,1,11,23,-2.4,1.2,-15.4,0.8,36.0,5,1026.1,3.0,1.4,0.5,0.0,0.0
264,2012,1,12,0,-3.4,1.2,-14.7,0.8,41.0,5,1025.9,3.0,1.6,0.5,0.0,0.0
265,2012,1,12,1,-3.5,1.2,-16.1,0.8,37.0,5,1025.8,3.0,0.9,0.5,0.0,0.0
266,2012,1,12,2,-3.8,1.2,-15.4,0.8,40.0,5,1026.0,3.0,0.9,0.5,0.0,0.0
267,2012,1,12,3,-4.3,1.2,-15.9,0.8,40.0,5,1025.9,3.0,2.0,0.5,0.0,0.0
268,2012,1,12,4,-4.5,1.2,-16.0,0.8,40.0,5,1026.1,3.0,1.3,0.5,0.0,0.0
269,2012,1,12,5,-4.8,1.2,-16.0,0.8,41.0,5,1026.0,3.0,1.8,0.5,0.0,0.0
270,2012,1,12,6,-4.6,1.2,-17.4,0.8,36.0,5,1026.0,3.0,2.0,0.5,0.0,0.0
271,2012,1,12,7,-5.0,1.2,-17.8,0.8,36.0,5,1025.9,3.0,1.1,0.5,16.0,2.0
272,2012,1,12,8,-4.3,1.2,-17.5,0.8,35.0,5,1025.8,3.0,3.5,0.5,128.0,16.0
273,2012,1,12,9,-3.4,1.2,-17.0,0.8,34.0,5,1026.1,3.0,3.5,0.5,267.0,33.0
274,2012,1,12,10,-2.2,1.2,-16.3,0.8,33.0,5,1026.3,3.0,4.8,0.5,435.0,54.0
275,2012,1,12,11,-0.9,1.2,-15.1,0.8,33.0,5,1026.2,3.0,2.9,0.5,527.0,65.0
276,2012,1,12,12,0.6,1.2,-13.4,0.8,34.0,5,1024.8,3.0,2.9,0.5,561.0,70.0
277,2012,1,12,13,2.2,1.2,-12.0,0.8,34.0,5,1023.4,3.0,1.8,0.5,533.0,66.0
278,2012,1,12,14,3.2,1.2,-11.9,0.8,32.0,5,1022.4,3.0,1.5,0.5,433.0,54.0
279,2012,1,12,15,4.1,1.2,-10.3,0.8,34.0,5,1021.5,3.0,1.4,0.5,313.0,39.0
280,2012,1,12,16,2.8,1.2,-11.1,0.8,35.0,5,1021.3,3.0,3.0,0.5,137.0,17.0
281,2012,1,12,17,2.0,1.2,-9.9,0.8,41.0,5,1021.2,3.0,2.7,0.5,26.0,3.0
282,2012,1,12,18,1.6,1.2,-8.5,0.8,47.0,5,1021.0,3.0,1.8,0.5,0.0,0.0
283,2012,1,12,19,1.6,1.2,-7.4,0.8,51.0,5,1020.9,3.0,2.0,0.5,0.0,0.0
284,2012,1,12,20,0.7,1.2,-7.0,0.8,56.0,5,1021.4,3.0,1.1,0.5,0.0,0.0
285,2012,1,12,21,1.0,1.2,-7.5,0.8,53.0,5,1021.5,3.0,3.3,0.5,0.0,0.0
286,2012,1,12,22,-0.5,1.2,-7.9,0.8,57.0,5,1021.8,3.0,1.8,0.5,0.0,0.0
287,2012,1,12,23,-1.5,1.2,-8.7,0.8,58.0,5,1021.2,3.0,1.5,0.5,0.0,0.0
288,2012,1,13,0,-1.2,1.2,-9.1,0.8,55.0,5,1021.6,3.0,1.4,0.5,0.0,0.0
289,2012,1,13,1,-1.3,1.2,-8.9,0.8,56.0,5,1021.7,3.0,0.9,0.5,0.0,0.0
290,2012,1,13,2,-1.3,1.2,-8.7,0.8,57.0,5,1021.8,3.0,0.1,0.5,0.0,0.0
291,2012,1,13,3,-1.9,1.2,-8.2,0.8,62.0,5,1021.5,3.0,0.9,0.5,0.0,0.0
292,2012,1,13,4,-2.2,1.2,-8.1,0.8,64.0,5,1020.9,3.0,1.0,0.5,0.0,0.0
293,2012,1,13,5,-1.4,1.2,-7.5,0.8,63.0,5,1021.0,3.0,0.0,0.5,0.0,0.0
294,2012,1,13,6,-2.0,1.2,-7.9,0.8,64.0,5,1021.2,3.0,0.1,0.5,0.0,0.0
295,2012,1,13,7,-0.7,1.2,-7.0,0.8,62.0,5,1021.2,3.0,0.3,0.5,0.0,0.0
296,2012,1,13,8,-0.3,1.2,-5.6,0.8,67.0,5,1021.2,3.0,0.3,0.5,55.0,7.0
297,2012,1,13,9,1.1,1.2,-4.9,0.8,64.0,5,1021.4,3.0,1.2,0.5,128.0,16.0
298,2012,1,13,10,2.5,1.2,-3.4,0.8,65.0,5,1021.8,3.0,1.0,0.5,358.0,44.0
299,2012,1,13,11,4.6,1.2,-3.2,0.8,57.0,5,1021.8,3.0,1.1,0.5,516.0,64.0
300,2012,1,13,12,4.9,1.2,-3.1,0.8,56.0,5,1020.8,3.0,2.4,0.5,554.0,69.0
301,2012,1,13,13,7.0,1.2,-2.4,0.8,51.0,5,1019.6,3.0,2.5,0.5,455.0,56.0
302,2012,1,13,14,6.6,1.2,-3.6,0.8,48.0,5,1018.7,3.0,4.4,0.5,367.0,46.0
303,2012,1,13,15,6.9,1.2,-3.6,0.8,47.0,5,1018.6,3.0,3.0,0.5,300.0,37.0
304,2012,1,13,16,6.5,1.2,-4.9,0.8,44.0,5,1018.5,3.0,4.2,0.5,125.0,16.0
305,2012,1,13,17,5.5,1.2,-4.6,0.8,48.0,5,1018.5,3.0,2.8,0.5,23.0,3.0
306,2012,1,13,18,4.8,1.2,-4.7,0.8,50.0,5,1019.2,3.0,3.1,0.5,0.0,0.0
307,2012,1,13,19,4.1,1.2,-4.8,0.8,52.0,5,1019.0,3.0,2.7,0.5,0.0,0.0
308,2012,1,13,20,4.0,1.2,-4.9,0.8,52.0,5,1019.5,3.0,1.7,0.5,0.0,0.0
309,2012,1,13,21,3.1,1.2,-5.0,0.8,55.0,5,1019.8,3.0,1.0,0.5,0.0,0.0
310,2012,1,13,22,2.2,1.2,-5.2,0.8,58.0,5,1019.4,3.0,1.9,0.5,0.0,0.0
311,2012,1,13,23,2.7,1.2,-5.2,0.8,56.0,5,1019.2,3.0,0.0,0.5,0.0,0.0
312,2012,1,14,0,1.6,1.2,-5.1,0.8,61.0,5,1019.2,3.0,0.8,0.5,0.0,0.0
313,2012,1,14,1,0.8,1.2,-5.2,0.8,64.0,5,1019.0,3.0,1.9,0.5,0.0,0.0
314,2012,1,14,2,0.2,1.2,-5.8,0.8,64.0,5,1019.0,3.0,1.1,0.5,0.0,0.0
315,2012,1,14,3,1.5,1.2,-7.5,0.8,51.0,5,1019.1,3.0,3.5,0.5,0.0,0.0
316,2012,1,14,4,1.0,1.2,-7.2,0.8,54.0,5,1018.9,3.0,3.6,0.5,0.0,0.0
317,2012,1,14,5,0.1,1.2,-6.9,0.8,59.0,5,1019.0,3.0,2.1,0.5,0.0,0.0
318,2012,1,14,6,0.0,1.2,-6.6,0.8,61.0,5,1019.3,3.0,2.6,0.5,0.0,0.0
319,2012,1,14,7,-0.5,1.2,-7.3,0.8,60.0,5,1019.5,3.0,2.5,0.5,0.0,0.0
320,2012,1,14,8,-0.7,1.2,-9.3,0.8,52.0,5,1019.8,3.0,2.6,0.5,89.0,11.0
321,2012,1,14,9,0.0,1.2,-10.5,0.8,45.0,5,1020.6,3.0,2.7,0.5,262.0,32.0
322,2012,1,14,10,2.5,1.2,-11.0,0.8,36.0,5,1020.6,3.0,2.8,0.5,427.0,53.0
323,2012,1,14,11,3.5,1.2,-13.7,0.8,27.0,5,1020.0,3.0,5.9,0.5,530.0,66.0
324,2012,1,14,12,4.9,1.2,-16.2,0.8,20.0,5,1019.1,3.0,5.6,0.5,567.0,70.0
325,2012,1,14,13,6.0,1.2,-16.5,0.8,18.0,5,1018.5,3.0,4.7,0.5,523.0,65.0
326,2012,1,14,14,6.6,1.2,-16.0,0.8,18.0,5,1017.7,3.0,4.5,0.5,438.0,54.0
327,2012,1,14,15,5.9,1.2,-15.4,0.8,20.0,5,1017.6,3.0,2.9,0.5,319.0,40.0
328,2012,1,14,16,5.8,1.2,-14.9,0.8,21.0,5,1017.8,3.0,2.5,0.5,131.0,16.0
329,2012,1,14,17,4.8,1.2,-13.6,0.8,25.0,5,1017.6,3.0,1.2,0.5,27.0,3.0
330,2012,1,14,18,3.2,1.2,-13.1,0.8,29.0,5,1017.9,3.0,0.8,0.5,0.0,0.0
331,2012,1,14,19,2.9,1.2,-11.4,0.8,34.0,5,1018.2,3.0,0.0,0.5,0.0,0.0
332,2012,1,14,20,2.5,1.2,-11.3,0.8,35.0,5,1018.1,3.0,1.6,0.5,0.0,0.0
333,2012,1,14,21,3.0,1.2,-13.1,0.8,30.0,5,1018.3,3.0,2.4,0.5,0.0,0.0
334,2012,1,14,22,2.5,1.2,-12.5,0.8,32.0,5,1018.1,3.0,1.3,0.5,0.0,0.0
335,2012,1,14,23,2.4,1.2,-12.6,0.8,32.0,5,1017.7,3.0,2.6,0.5,0.0,0.0
336,2012,1,15,0,2.5,1.2,-14.6,0.8,27.0,5,1017.6,3.0,3.6,0.5,0.0,0.0
337,2012,1,15,1,2.3,1.2,-14.8,0.8,27.0,5,1017.4,3.0,3.4,0.5,0.0,0.0
338,2012,1,15,2,1.9,1.2,-13.8,0.8,30.0,5,1017.2,3.0,2.8,0.5,0.0,0.0
339,2012,1,15,3,1.5,1.2,-11.6,0.8,37.0,5,1017.0,3.0,1.0,0.5,0.0,0.0
340,2012,1,15,4,2.0,1.2,-10.2,0.8,40.0,5,1017.0,3.0,3.0,0.5,0.0,0.0
341,2012,1,15,5,1.9,1.2,-9.6,0.8,42.0,5,1017.0,3.0,2.8,0.5,0.0,0.0